Location: ??????
(36.0418°N, 43.6351°E)
Time: 01:28:55
(UTC+00:00)

Geosat - Pass Details

Date: 07 March 2021
Orbit: 763 x 765 km, 108.0° (Epoch: 22 April)

Event Time Altitude Azimuth Distance (km) Brightness Sun altitude
Rises 01:44:20 0° 17° (NNE) 3,236 7.6 -21.7°
Reaches altitude 10° 01:46:42 10° 10° (N) 2,307 6.7 -21.2°
Maximum altitude 01:51:25 42° 301° (WNW) 1,076 4.4 -20.2°
Enters shadow 01:52:08 40° 278° (W) 1,119 4.3 -20.1°
